User: anonymous
Location: Albany
(35.0000°S, 118.0000°E)
Time: 01:48:57
(UTC-04:00)
Language:

Centaur D-1AR AC-48 - Orbit

View from above orbital plane
View from above orbital plane
View from above satellite
View from above satellite

Ground track
Ground track

The orbit data is extracted from the following two-line orbital elements,

1 10779U 78035B   14260.92182554 -.00000311  00000-0 -30597-3 0  9406
2 10779 021.5928 057.3380 7180952 114.7771 007.4947 02.22636682296341
Epoch (UTC): 17 September 2014 22:07:25
Eccentricity: 0.7180952
inclination: 21.5928°
perigee height: 606 km
apogee height: 36186 km
right ascension of ascending node: 57.3380°
argument of perigee: 114.7771°
revolutions per day: 2.22636682
mean anomaly at epoch: 7.4947°
orbit number at epoch: 29634

The dashed part of the orbit path shows where the satellite is in the earth's shadow,  

DLR